Accueil
METAR-TAF:

METAR-TAF

Aéroports :

Akulivik, Québec, Canada

latitude: 60-49N, longitude: 078-09W, altitude: 20 m

Observation

Le bulletin a été fait il y a 15 heures et 13 minutes, à 15:00 UTC
Vent 19 kt de ouest/nord-ouest
Température 6°C
Humidité 75%
Pression 1011 hPa
Visibilité: 24.1 km
Quelques nuages à une hauteur de 15000 ft

METAR: CYKO 171500Z 29019KT 15SM FEW150 06/02 A2984 RMK AC1 SLP107

Heure: 02:13 (06:13 UTC)


TAF: absent

Observations et prévisions météorologiques de plus de 4000 aéroports (messages METAR et TAF).

Les stations disponibles sont représentées par des disques jaunes et rouges sur la carte.

Passer la souris dessus pour voir le nom de la station.

Cliquer dessus pour voir les observations et prévisions météorologiques.

Pour changer de carte: cliquez sur les boutons verts avec une croix noire pour zoomer, sur le bouton vert avec un tiret pour effectuer un zoom arrière, ou sur les flèches vertes pour les cartes adjacentes.


METAR-TAF: